User: anonymous   Login
Location: Unspecified
(0.0000°N, 0.0000°E)
Time: 09:26:49
(UTC+02:00)
Language:

Delta 2 Rocket - Orbit

View from above orbital plane
View from above orbital plane
View from above satellite
View from above satellite

Ground track
Ground track

The orbit data is extracted from the following two-line orbital elements,

1 20453U 90008B   15215.66985949  .00004770  00000-0  28432-3 0  9991
2 20453 035.6275 276.6890 0304214 256.6753 099.9872 14.79339670346770
Epoch (UTC): 03 August 2015 16:04:35
Eccentricity: 0.0304214
inclination: 35.6275°
perigee height: 418 km
apogee height: 844 km
right ascension of ascending node: 276.6890°
argument of perigee: 256.6753°
revolutions per day: 14.79339670
mean anomaly at epoch: 99.9872°
orbit number at epoch: 34677

The dashed part of the orbit path shows where the satellite is in the earth's shadow,  

DLR